This demonstration page uses our WeatherBlox Daily Observations layout. Learn more.

40.92945, -100.16068

Hourly Observations for March 4, 2017

Temp ( °F °C ) Dew Point ( °F °C ) Humidity (%) Winds ( mph kmh ) Pressure ( in mb ) Visibility ( mi km ) Precip ( " mm )
12:15 am 00:15 Clear 25 -3.8 19 -7 79 79 NW 8 13 30.24 1024 10 16.0934 0 0
12:35 am 00:35 Clear 25 -4 19 -7 80 80 NNW 7 11 30.21 1023 10 16.0934 0 0
12:55 am 00:55 Clear 26 -3.6 19 -7.1 77 77 NNW 8 13 30.21 1023 10 16.0934 0 0
1:15 am 01:15 Clear 26 -3.1 19 -7 75 75 NNW 5 7 30.21 1023 10 16.0934 0 0
1:35 am 01:35 Clear 24 -4.4 18 -7.6 79 79 WNW 6 9 30.21 1023 10 16.0934 0 0
1:55 am 01:55 Clear 24 -4.6 19 -7.4 81 81 W 7 11 30.18 1022 10 16.0934 0 0
2:15 am 02:15 Clear 25 -3.9 19 -7 79 79 W 8 13 30.18 1022 10 16.0934 0 0
2:35 am 02:35 Clear 24 -4.2 19 -7.5 78 78 W 6 9 30.18 1022 10 16.0934 0 0
2:55 am 02:55 Clear 24 -4.2 19 -7.5 78 78 SW 6 9 30.18 1022 10 16.0934 0 0
3:15 am 03:15 Clear 24 -4.5 19 -7.5 80 80 W 8 13 30.18 1022 10 16.0934 0 0
3:35 am 03:35 Clear 24 -4.6 18 -7.6 80 80 NW 8 13 30.18 1022 10 16.0934 0 0
3:55 am 03:55 Clear 23 -5.1 18 -7.6 83 83 N 6 9 30.21 1023 10 16.0934 0 0
4:15 am 04:15 Clear 23 -5 18 -7.6 82 82 NNE 3 6 30.21 1023 10 16.0934 0 0
4:35 am 04:35 Clear 23 -5.1 18 -8 80 80 Calm 30.21 1023 10 16.0934 0 0
4:55 am 04:55 Clear 22 -5.8 17 -8.5 81 81 W 3 6 30.21 1023 10 16.0934 0 0
5:15 am 05:15 Clear 22 -5.8 17 -8.2 83 83 Calm 30.21 1023 10 16.0934 0 0
5:35 am 05:35 Clear 22 -5.7 17 -8.2 83 83 W 3 6 30.21 1023 10 16.0934 0 0
5:55 am 05:55 Clear 20 -6.5 17 -8.5 86 86 W 5 7 30.21 1023 10 16.0934 0 0
6:15 am 06:15 Clear 21 -6.3 17 -8.6 84 84 WNW 6 9 30.21 1023 10 16.0934 0 0
6:35 am 06:35 Clear 22 -5.8 17 -8.2 83 83 W 3 6 30.21 1023 10 16.0934 0 0
6:55 am 06:55 Clear 21 -5.9 17 -8.4 83 83 Calm 30.21 1023 10 16.0934 0 0
7:15 am 07:15 Sunny 22 -5.7 17 -8.3 82 82 Calm 30.21 1023 10 16.0934 0 0
7:35 am 07:35 Sunny 22 -5.6 19 -7.4 87 87 Calm 30.18 1022 10 16.0934 0 0
7:55 am 07:55 Sunny 26 -3.4 22 -5.8 84 84 Calm 30.18 1022 10 16.0934 0 0
8:15 am 08:15 Sunny 28 -2.1 23 -5.1 80 80 Calm 30.18 1022 10 16.0934 0 0
8:35 am 08:35 Sunny 31 -0.6 24 -4.4 76 76 Calm 30.12 1020 10 16.0934 0 0
8:55 am 08:55 Sunny 34 1 24 -4.3 68 68 ESE 3 6 30.09 1019 10 16.0934 0 0
9:15 am 09:15 Sunny 37 2.6 24 -4.4 60 60 SSE 5 7 30.09 1019 10 16.0934 0 0
9:35 am 09:35 Sunny 40 4.4 25 -4 55 55 SE 6 9 30.06 1018 10 16.0934 0 0
9:55 am 09:55 Sunny 45 7.1 26 -3.6 47 47 SE 7 11 30 1016 10 16.0934 0 0
10:15 am 10:15 Sunny 49 9.3 23 -5.1 36 36 S 10 17 30 1016 10 16.0934 0 0
10:35 am 10:35 Sunny 51 10.3 23 -5 34 34 S 12 19 29.97 1015 10 16.0934 0 0
10:55 am 10:55 Sunny 53 11.5 23 -5 31 31 SSE 14 22 29.97 1015 10 16.0934 0 0
11:15 am 11:15 Sunny 55 12.9 24 -4.7 29 29 SSE 14 22 29.91 1013 10 16.0934 0 0
11:35 am 11:35 Sunny 56 13.6 24 -4.6 28 28 SSE 15 24 29.91 1013 10 16.0934 0 0
11:55 am 11:55 Sunny 57 14.1 23 -4.8 27 27 S 16 26 29.91 1013 10 16.0934 0 0
12:15 pm 12:15 Sunny 59 14.9 24 -4.7 26 26 SSE 18 30 29.91 1013 10 16.0934 0 0
12:35 pm 12:35 Sunny 61 16.2 24 -4.7 24 24 S 16 26 29.85 1011 10 16.0934 0 0
12:55 pm 12:55 Sunny 62 16.7 22 -5.4 22 22 S 16 26 29.85 1011 10 16.0934 0 0
1:15 pm 13:15 Sunny 62 16.5 22 -5.4 22 22 S 16 26 29.85 1011 10 16.0934 0 0
1:35 pm 13:35 Sunny 64 17.9 23 -4.9 21 21 S 14 22 29.83 1010 10 16.0934 0 0
1:55 pm 13:55 Sunny 65 18.6 22 -5.5 19 19 S 14 22 29.83 1010 10 16.0934 0 0
2:15 pm 14:15 Sunny 68 20 22 -5.8 17 17 SSW 16 26 29.77 1008 10 16.0934 0 0
2:35 pm 14:35 Sunny 69 20.3 21 -6.2 16 16 SSW 17 28 29.77 1008 10 16.0934 0 0
2:55 pm 14:55 Sunny 69 20.7 20 -6.4 16 16 SSW 17 28 29.77 1008 10 16.0934 0 0
3:15 pm 15:15 Sunny 70 21.3 20 -6.7 15 15 S 15 24 29.74 1007 10 16.0934 0 0
3:35 pm 15:35 Sunny 71 21.6 19 -7 14 14 S 17 28 29.71 1006 10 16.0934 0 0
3:55 pm 15:55 Sunny 71 21.9 19 -7.3 13 13 S 17 28 29.71 1006 10 16.0934 0 0
4:15 pm 16:15 Sunny 72 22.1 19 -7.2 13 13 S 15 24 29.68 1005 10 16.0934 0 0
4:35 pm 16:35 Sunny 72 22 19 -7.1 14 14 S 20 31 29.68 1005 10 16.0934 0 0
4:55 pm 16:55 Sunny 72 22.1 19 -7.2 13 13 S 16 26 29.68 1005 10 16.0934 0 0
5:15 pm 17:15 Partly Cloudy 71 21.8 19 -7.1 14 14 SSE 10 17 29.68 1005 10 16.0934 0 0
5:35 pm 17:35 Sunny 70 21.3 20 -6.7 15 15 SSE 8 13 29.68 1005 10 16.0934 0 0
5:55 pm 17:55 Sunny 69 20.7 21 -6.3 16 16 SSE 9 15 29.68 1005 10 16.0934 0 0
6:15 pm 18:15 Sunny 66 18.7 21 -5.9 18 18 S 9 15 29.68 1005 10 16.0934 0 0
6:35 pm 18:35 Clear 63 17 22 -5.5 21 21 S 12 19 29.71 1006 10 16.0934 0 0
6:55 pm 18:55 Clear 58 14.7 23 -4.8 26 26 SSE 13 20 29.74 1007 10 16.0934 0 0
7:15 pm 19:15 Clear 60 15.6 25 -3.9 26 26 SSE 13 20 29.74 1007 10 16.0934 0 0
7:35 pm 19:35 Clear 60 15.6 26 -3.6 27 27 SSE 14 22 29.74 1007 10 16.0934 0 0
7:55 pm 19:55 Clear 58 14.6 26 -3.6 28 28 SSE 14 22 29.71 1006 10 16.0934 0 0
8:15 pm 20:15 Clear 59 15 27 -2.6 30 30 SSE 18 30 29.74 1007 10 16.0934 0 0
8:35 pm 20:35 Clear 59 14.9 28 -2 31 31 SSE 20 31 29.71 1006 10 16.0934 0 0
8:55 pm 20:55 Clear 59 14.8 29 -1.7 32 32 SSE 21 33 29.74 1007 10 16.0934 0 0
9:15 pm 21:15 Clear 58 14.5 30 -1.3 34 34 S 21 33 29.71 1006 10 16.0934 0 0
9:35 pm 21:35 Clear 57 14.1 30 -1.1 35 35 SSE 18 30 29.77 1008 10 16.0934 0 0
9:55 pm 21:55 Clear 56 13.5 31 -0.6 38 38 SSE 16 26 29.77 1008 10 16.0934 0 0
10:15 pm 22:15 Clear 55 12.9 31 -0.3 41 41 SSE 17 28 29.77 1008 10 16.0934 0 0
10:35 pm 22:35 Clear 55 12.5 32 0 43 43 SSE 16 26 29.74 1007 10 16.0934 0 0
10:55 pm 22:55 Clear 53 11.7 32 0.1 45 45 SSE 15 24 29.74 1007 10 16.0934 0 0
11:15 pm 23:15 Clear 53 11.5 33 0.6 47 47 SSE 15 24 29.74 1007 10 16.0934 0 0
11:35 pm 23:35 Clear 50 9.9 33 0.6 53 53 SSE 10 17 29.77 1008 10 16.0934 0 0
11:55 pm 23:55 Clear 49 9.7 34 1 55 55 S 10 17 29.77 1008 10 16.0934 0 0

Powered by AerisWeather